Regional Weather Roundup
Issued by NWS Kansas City/Pleasant Hill, MO

Home | Current Version | Previous Version | Graphics & Text | Print | Product List | Glossary Off
Versions: 1 2 3 4 5 6 7 8 9 10 11 12 13 14 15 16 17 18 19 20 21 22 23 24 25 26 27 28

000
ASUS43 KEAX 162110
RWREAX

WEATHER ROUNDUP FOR EASTERN KANSAS AND NORTHWEST MISSOURI
NATIONAL WEATHER SERVICE KANSAS CITY/PLEASANT HILL MO
400 PM CDT WED AUG 16 2017

KSZ040-057-103>105-MOZ028-029-037-043-162200-
...KANSAS CITY METROPOLITAN AREA...

CITY           SKY/WX    TMP DP  RH WIND       PRES   REMARKS
K.C. INTL      PTSUNNY   84  73  69 SW10      29.81S HX  90
K.C. DOWNTOWN  PTSUNNY   87  74  64 W8        29.79S HX  95
LEES SUMMIT    CLOUDY    84  74  71 S13       29.82S HX  91
OLATHE - IXD   CLOUDY    81  73  76 W8        29.82S
OLATHE - OJC   CLOUDY    82  73  74 S7        29.82S
LAWRENCE       PTSUNNY   83  73  72 W7        29.80F

$$

MOZ001>008-011>017-020>025-030>033-038>040-044>046-053-054-162200-
...NORTHERN AND CENTRAL MISSOURI...

CITY           SKY/WX    TMP DP  RH WIND       PRES   REMARKS
ST. JOSEPH     CLOUDY    83  70  64 SW8       29.79S
MOSBY          MOCLDY    86  68  54 W7        29.80S
WARRENSBURG    MOSUNNY   81  70  69 S8        29.83S
WHITEMAN AFB   MOSUNNY   81  80  98 S16       29.83S HX  92
CLINTON        MOSUNNY   81  73  78 S14G20    29.85F
SEDALIA        CLOUDY    76  75  97 S12       29.86S
WARSAW         NOT AVBL
CHILLICOTHE      N/A     86  74  67 VRB7      29.80S HX  94
KIRKSVILLE     CLOUDY    82  74  76 S13G24    29.83F

$$

MOZ041-047>049-056>058-063>065-088>090-097-162200-
...EASTERN AND SOUTHERN MISSOURI...

CITY           SKY/WX    TMP DP  RH WIND       PRES   REMARKS
ST. LOUIS INTL TSTM      76  73  91 SE10      29.89R
SPIRIT OF STL  CLOUDY    79  74  84 NE6       29.86F
COLUMBIA       TSTM      70  69  97 S10       29.88R
JEFFERSON CITY TSTM      71  71 100 SE8       29.88F FOG
ROLLA          RAIN      73  72  96 NW15G26   29.95R FOG
OSAGE BEACH    RAIN      70  69  97 SE8       29.92S
SPRINGFIELD    LGT RAIN  74  73  97 SE6       29.92F
BRANSON        PTSUNNY   84  72  65 SW9       29.94S
JOPLIN         MOSUNNY   87  77  72 S21G29    29.86F HX  99
WEST PLAINS    CLOUDY    84  76  76 SE5       29.94F HX  93

$$

IAZ060-094-KSZ022-034>040-054-083-096-NEZ052-066-093-162200-
...KANSAS...SOUTHEAST NEBRASKA AND IOWA...

CITY           SKY/WX    TMP DP  RH WIND       PRES   REMARKS
TOPEKA         CLOUDY    82  71  69 W9        29.81F
MANHATTAN      MOSUNNY   81  67  62 W14G20    29.84S
EMPORIA        PTSUNNY   81  72  74 NW9       29.82F
CHANUTE        MOSUNNY   87  77  72 S15       29.82F HX  99
WICHITA        CLOUDY    75  69  81 E10       29.82R
OMAHA          MOSUNNY   83  65  54 SW14G24   29.75R
LINCOLN        MOSUNNY   82  64  54 W17       29.79S
FALLS CITY     PTSUNNY   82  66  58 W14       29.79S
LAMONI         MOSUNNY   82  70  66 SW13G22   29.79R
DES MOINES     LGT RAIN  81  70  69 S10       29.75S

$$





USA.gov is the U.S. government's official web portal to all federal, state and local government web resources and services.